This is the latest recevied weather packets stored in our database for station/object IK1AMC-3. If no packets are shown the sender has not sent any weather packets the latest 10 day(s).
| Time | Temp. | Humidity | Pressure | Rain* | Wind** | Luminosity | Snow |
|---|---|---|---|---|---|---|---|
| 1777775817 | 14.44° C | 66% | 1019.8 hPa | - | - | - | - |
| 1777774616 | 14.44° C | 66% | 1019.6 hPa | - | - | - | - |
| 1777773415 | 14.44° C | 67% | 1019.7 hPa | - | - | - | - |
| 1777772213 | 15° C | 64% | 1019.6 hPa | - | - | - | - |
| 1777771012 | 14.44° C | 66% | 1019.8 hPa | - | - | - | - |
| 1777769811 | 14.44° C | 66% | 1019.8 hPa | - | - | - | - |
| 1777768610 | 15° C | 64% | 1019.9 hPa | - | - | - | - |
| 1777767408 | 14.44° C | 65% | 1020.2 hPa | - | - | - | - |
| 1777766207 | 15° C | 63% | 1020 hPa | - | - | - | - |
| 1777765006 | 15° C | 62% | 1020.1 hPa | - | - | - | - |
| 1777763804 | 15° C | 60% | 1020.6 hPa | - | - | - | - |
| 1777762603 | 15° C | 60% | 1020.7 hPa | - | - | - | - |
| 1777761402 | 15.56° C | 58% | 1020.8 hPa | - | - | - | - |
| 1777760201 | 15.56° C | 56% | 1020.9 hPa | - | - | - | - |
| 1777758999 | 16.11° C | 54% | 1020.9 hPa | - | - | - | - |
| 1777757798 | 15.56° C | 53% | 1020.9 hPa | - | - | - | - |
| 1777756597 | 15.56° C | 51% | 1021 hPa | - | - | - | - |
| 1777755395 | 16.11° C | 49% | 1021.2 hPa | - | - | - | - |
| 1777754194 | 16.67° C | 46% | 1021.1 hPa | - | - | - | - |
| 1777752993 | 16.67° C | 46% | 1021.1 hPa | - | - | - | - |
| 1777751792 | 17.22° C | 45% | 1021.1 hPa | - | - | - | - |
| 1777750590 | 17.78° C | 44% | 1020.9 hPa | - | - | - | - |
| 1777749389 | 18.33° C | 43% | 1020.7 hPa | - | - | - | - |
| 1777748188 | 18.33° C | 44% | 1020.5 hPa | - | - | - | - |
| 1777746987 | 19.44° C | 48% | 1020.3 hPa | - | - | - | - |
* Rain since midnight (hover to see other rain measurements)
** Current wind speed in m/s (hover to see current wind gust speed)